This demonstration page uses our WeatherBlox Daily Observations layout. Learn more.

Left ArrowRight Arrow

38.20091, -84.87328

Hourly Observations for September 24, 2022

Temp ( °F °C ) Dew Point ( °F °C ) Humidity (%) Winds ( mph kmh ) Pressure ( in mb ) Visibility ( mi km ) Precip ( " mm )
12:53 am 00:53 Cloudy 60 15.6 48 8.9 64 64 Calm 30.11 1020 10 16 0.00 0.00
1:53 am 01:53 Cloudy 60 15.6 49 9.4 67 67 ESE 5 7 30.07 1018 10 16 0.00 0.00
2:53 am 02:53 Cloudy 60 15.6 49 9.4 67 67 Calm 30.07 1018 10 16 0.00 0.00
3:53 am 03:53 Mostly Cloudy 59 15 48 8.9 67 67 SE 6 9 30.04 1017 10 16 0.00 0.00
4:53 am 04:53 Cloudy 59 15 51 10.6 75 75 NNW 9 15 30.10 1019 10 16 0.01 0.13
5:53 am 05:53 Mostly Cloudy 56 13.3 52 11.1 87 87 E 6 9 30.07 1018 10 16 0.01 0.25
6:53 am 06:53 Cloudy 56 13.3 52 11.1 87 87 ESE 5 7 30.07 1018 10 16 0.00 0.00
7:53 am 07:53 Mostly Cloudy 56 13.3 52 11.1 87 87 SE 5 7 30.06 1018 10 16 0.00 0.00
8:53 am 08:53 Cloudy 58 14.4 53 11.7 84 84 ESE 3 6 30.09 1019 10 16 0.00 0.00
9:53 am 09:53 Cloudy 60 15.6 54 12.2 80 80 SSE 7 11 30.06 1018 10 16 0.00 0.00
10:53 am 10:53 Mostly Cloudy 64 17.8 54 12.2 70 70 S 8 13 30.05 1018 10 16 0.00 0.00
11:53 am 11:53 Mostly Cloudy 71 21.7 56 13.3 59 59 S 12 19 30.02 1017 10 16 0.00 0.00
12:53 pm 12:53 Mostly Cloudy 73 22.8 54 12.2 51 51 SSW 20 31 29.98 1015 10 16 0.00 0.00
1:53 pm 13:53 Cloudy 72 22.2 54 12.2 53 53 SSW 12 19 29.96 1015 10 16 0.00 0.00
2:53 pm 14:53 Mostly Cloudy 75 23.9 56 13.3 51 51 SSW 14 22 29.93 1014 10 16 0.00 0.00
3:53 pm 15:53 Mostly Sunny 75 23.9 56 13.3 51 51 SSW 16 26 29.92 1013 10 16 0.00 0.00
4:53 pm 16:53 Sunny 75 23.9 56 13.3 51 51 SW 17 28 29.90 1013 10 16 0.00 0.00
5:53 pm 17:53 Sunny 74 23.3 57 13.9 56 56 SW 12 19 29.90 1013 10 16 0.00 0.00
6:53 pm 18:53 Sunny 73 22.8 57 13.9 57 57 SSW 7 11 29.89 1012 10 16 0.00 0.00
7:53 pm 19:53 Clear 69 20.6 57 13.9 65 65 S 5 7 29.89 1012 10 16 0.00 0.00
8:53 pm 20:53 Clear 66 18.9 57 13.9 73 73 S 6 9 29.89 1012 10 16 0.00 0.00
9:53 pm 21:53 Clear 66 18.9 57 13.9 73 73 SSW 5 7 29.89 1012 10 16 0.00 0.00
10:53 pm 22:53 Clear 65 18.3 57 13.9 76 76 SSW 6 9 29.88 1012 10 16 0.00 0.00
11:53 pm 23:53 Clear 65 18.3 57 13.9 76 76 SSW 6 9 29.86 1011 10 16 0.00 0.00

Powered by AerisWeather